TimeMST,TemperatureF,Dew PointF,Humidity,Sea Level PressureIn,VisibilityMPH,Wind Direction,Wind SpeedMPH,Gust SpeedMPH,PrecipitationIn,Events,Conditions,WindDirDegrees,DateUTC
12:53 AM,41.0,26.1,55,29.69,10.0,West,11.5,-,N/A,,Overcast,280,2013-01-08 07:53:00
1:53 AM,39.0,26.1,60,29.71,10.0,SW,12.7,-,N/A,,Overcast,230,2013-01-08 08:53:00
2:53 AM,36.0,25.0,64,29.74,10.0,SW,11.5,-,N/A,,Mostly Cloudy,230,2013-01-08 09:53:00
3:53 AM,36.0,25.0,64,29.76,10.0,WSW,13.8,-,N/A,,Mostly Cloudy,240,2013-01-08 10:53:00
4:53 AM,34.0,24.1,67,29.78,10.0,SW,10.4,-,N/A,,Overcast,230,2013-01-08 11:53:00
5:53 AM,36.0,23.0,59,29.80,10.0,West,16.1,-,N/A,,Mostly Cloudy,260,2013-01-08 12:53:00
6:53 AM,33.8,21.2,60,29.75,10.0,WSW,17.3,-,N/A,,Scattered Clouds,250,2013-01-08 13:53:00
7:53 AM,34.0,21.0,59,29.86,10.0,West,19.6,-,N/A,,Clear,260,2013-01-08 14:53:00
8:53 AM,34.0,21.0,59,29.91,10.0,WSW,15.0,-,N/A,,Clear,250,2013-01-08 15:53:00
9:53 AM,37.0,19.0,48,29.94,10.0,West,18.4,-,N/A,,Clear,270,2013-01-08 16:53:00
10:53 AM,39.0,17.1,41,29.96,10.0,West,21.9,26.5,N/A,,Clear,270,2013-01-08 17:53:00
11:53 AM,39.9,14.0,35,29.96,10.0,West,24.2,32.2,N/A,,Clear,260,2013-01-08 18:53:00
12:53 PM,42.1,14.0,32,29.96,10.0,WSW,23.0,33.4,N/A,,Clear,250,2013-01-08 19:53:00
1:53 PM,42.1,17.1,37,29.99,10.0,WSW,17.3,-,N/A,,Clear,240,2013-01-08 20:53:00
2:53 PM,41.0,17.1,38,30.01,10.0,WSW,13.8,-,N/A,,Overcast,250,2013-01-08 21:53:00
3:53 PM,39.0,17.1,41,30.01,10.0,WSW,16.1,-,N/A,,Overcast,240,2013-01-08 22:53:00
4:53 PM,39.0,18.0,43,30.03,10.0,SW,13.8,-,N/A,,Partly Cloudy,220,2013-01-08 23:53:00
5:53 PM,37.9,19.0,47,30.01,10.0,SW,6.9,-,N/A,,Overcast,220,2013-01-09 00:53:00
6:53 PM,37.0,21.0,52,29.99,10.0,SSW,11.5,-,N/A,,Partly Cloudy,200,2013-01-09 01:53:00
7:53 PM,35.1,21.0,57,29.98,10.0,SSW,10.4,-,N/A,,Clear,210,2013-01-09 02:53:00
8:53 PM,34.0,21.9,61,29.97,10.0,SSW,13.8,-,N/A,,Clear,210,2013-01-09 03:53:00
9:53 PM,39.0,25.0,57,29.91,10.0,SSW,13.8,-,N/A,,Clear,210,2013-01-09 04:53:00
10:53 PM,39.9,26.1,58,29.90,10.0,SSW,17.3,-,N/A,,Clear,210,2013-01-09 05:53:00
11:53 PM,39.9,26.1,58,29.89,10.0,SSW,16.1,-,N/A,,Clear,210,2013-01-09 06:53:00